TimeCET,TemperatureF,Dew PointF,Humidity,Sea Level PressureIn,VisibilityMPH,Wind Direction,Wind SpeedMPH,Gust SpeedMPH,PrecipitationIn,Events,Conditions,WindDirDegrees,DateUTC
12:55 AM,26.6,21.2,80,30.33,-9999.0,North,5.8,-,N/A,,Clear,10,2012-12-28 23:55:00
1:55 AM,26.6,21.2,80,30.33,-9999.0,North,4.6,-,N/A,,Clear,10,2012-12-29 00:55:00
2:55 AM,26.6,21.2,80,30.33,-9999.0,Calm,Calm,-,N/A,,Clear,0,2012-12-29 01:55:00
3:55 AM,26.6,23.0,86,30.33,-9999.0,Calm,Calm,-,N/A,,Clear,0,2012-12-29 02:55:00
4:55 AM,26.6,23.0,86,30.30,-9999.0,North,3.5,-,N/A,,Clear,10,2012-12-29 03:55:00
5:55 AM,26.6,23.0,86,30.30,-9999.0,North,4.6,-,N/A,,Clear,10,2012-12-29 04:55:00
6:55 AM,24.8,21.2,86,30.30,-9999.0,Calm,Calm,-,N/A,,Clear,0,2012-12-29 05:55:00
7:55 AM,23.0,19.4,86,30.30,-9999.0,Calm,Calm,-,N/A,,Clear,0,2012-12-29 06:55:00
8:55 AM,21.2,15.8,80,30.30,-9999.0,Calm,Calm,-,N/A,,Clear,0,2012-12-29 07:55:00
9:55 AM,21.2,17.6,86,30.27,-9999.0,Calm,Calm,-,N/A,,Clear,0,2012-12-29 08:55:00
10:55 AM,30.2,24.8,80,30.27,-9999.0,Calm,Calm,-,N/A,,Clear,0,2012-12-29 09:55:00
11:55 AM,33.8,19.4,56,30.27,-9999.0,Calm,Calm,-,N/A,,Clear,0,2012-12-29 10:55:00
12:55 PM,37.4,17.6,45,29.89,-9999.0,Calm,Calm,-,N/A,,Clear,0,2012-12-29 11:55:00
1:55 PM,37.4,15.8,41,30.21,-9999.0,Calm,Calm,-,N/A,,Clear,0,2012-12-29 12:55:00
2:55 PM,37.4,15.8,41,30.21,-9999.0,Calm,Calm,-,N/A,,Clear,0,2012-12-29 13:55:00
3:55 PM,33.8,14.0,44,30.18,-9999.0,Calm,Calm,-,N/A,,Clear,0,2012-12-29 14:55:00
4:55 PM,30.2,12.2,47,30.18,-9999.0,Calm,Calm,-,N/A,,Clear,0,2012-12-29 15:55:00
5:55 PM,32.0,14.0,48,30.18,-9999.0,South,3.5,-,N/A,,Clear,180,2012-12-29 16:55:00
7:55 PM,24.8,17.6,74,30.18,-9999.0,NNE,3.5,-,N/A,,Clear,20,2012-12-29 18:55:00
8:55 PM,23.0,17.6,80,30.18,-9999.0,NNE,3.5,-,N/A,,Clear,20,2012-12-29 19:55:00
10:55 PM,19.4,17.6,93,30.15,-9999.0,Calm,Calm,-,N/A,,Clear,0,2012-12-29 21:55:00
11:55 PM,19.4,15.8,86,30.18,-9999.0,NNE,3.5,-,N/A,,Clear,30,2012-12-29 22:55:00